• In Belarus
  • List of Countries
  • For 7 days
  • Water Temperature
  • Satellite Maps
  • Weather Map
  • Weather Widgets
  • user-avatar
    Login

    Hourly Weather Myitkyina

    Today, 21 July, Sunday

    Time Temperature Precipitation Wind Pressure Humidity
    00:00 +24°C° 0 mm 0 mps 736 mmHg 93%
    01:00 +24°C° 0 mm 0 mps 736 mmHg 94%
    02:00 +24°C° 0 mm 0 mps 736 mmHg 94%
    03:00 +24°C° 0 mm 0 mps 735 mmHg 95%
    04:00 +24°C° 0.1 mm 0 mps 736 mmHg 94%
    05:00 +25°C° 0.1 mm 0 mps 736 mmHg 93%
    06:00 +25°C° 0 mm 0 mps 736 mmHg 91%
    07:00 +26°C° 1.2 mm 0 mps 736 mmHg 89%
    08:00 +28°C° 1.2 mm 0 mps 736 mmHg 88%
    09:00 +29°C° 1.2 mm 0 mps 736 mmHg 86%
    10:00 +31°C° 2.7 mm 1 mps 736 mmHg 87%
    11:00 +31°C° 2.7 mm 1 mps 736 mmHg 88%
    12:00 +30°C° 0 mm 1 mps 737 mmHg 87%
    13:00 +30°C° 2.1 mm 1 mps 736 mmHg 90%
    14:00 +30°C° 2.1 mm 1 mps 736 mmHg 92%
    15:00 +29°C° 2.1 mm 1 mps 735 mmHg 94%
    16:00 +29°C° 1.2 mm 1 mps 735 mmHg 95%
    17:00 +28°C° 1.2 mm 1 mps 735 mmHg 96%
    18:00 +26°C° 1.2 mm 0 mps 735 mmHg 97%
    19:00 +25°C° 0 mm 0 mps 735 mmHg 97%
    20:00 +25°C° 0 mm 0 mps 736 mmHg 97%
    21:00 +25°C° 0 mm 0 mps 737 mmHg 98%
    22:00 +25°C° 0.6 mm 0 mps 736 mmHg 98%
    23:00 +25°C° 0.6 mm 0 mps 736 mmHg 98%

    Tomorrow, 22 July, Monday

    Time Temperature Precipitation Wind Pressure Humidity
    00:00 +24°C° 0.6 mm 0 mps 736 mmHg 98%
    01:00 +24°C° 0.6 mm 0 mps 736 mmHg 98%
    02:00 +24°C° 0.6 mm 0 mps 736 mmHg 98%
    03:00 +24°C° 0.6 mm 0 mps 735 mmHg 98%
    04:00 +24°C° 0.8 mm 0 mps 735 mmHg 98%
    05:00 +24°C° 0.8 mm 0 mps 735 mmHg 98%
    06:00 +24°C° 0.8 mm 0 mps 736 mmHg 98%
    07:00 +24°C° 1 mm 0 mps 736 mmHg 98%
    08:00 +24°C° 1 mm 0 mps 737 mmHg 98%
    09:00 +25°C° 1 mm 0 mps 737 mmHg 98%
    10:00 +25°C° 3 mm 0 mps 737 mmHg 98%
    11:00 +24°C° 3 mm 0 mps 736 mmHg 99%
    12:00 +24°C° 3 mm 0 mps 736 mmHg 99%
    13:00 +26°C° 1.2 mm 1 mps 736 mmHg 98%
    14:00 +27°C° 1.2 mm 1 mps 735 mmHg 98%
    15:00 +27°C° 1.2 mm 1 mps 735 mmHg 98%
    16:00 +27°C° 0.3 mm 1 mps 735 mmHg 98%
    17:00 +24°C° 0.3 mm 0 mps 735 mmHg 98%
    18:00 +24°C° 0.3 mm 0 mps 735 mmHg 98%
    19:00 +24°C° 0.2 mm 0 mps 736 mmHg 98%
    20:00 +24°C° 0.2 mm 0 mps 736 mmHg 98%
    21:00 +24°C° 0.2 mm 0 mps 737 mmHg 98%
    22:00 +23°C° 0.6 mm 0 mps 737 mmHg 99%
    23:00 +23°C° 0.6 mm 0 mps 736 mmHg 99%

    Day after tomorrow, 23 July, Tuesday

    Time Temperature Precipitation Wind Pressure Humidity
    00:00 +23°C° 0.6 mm 0 mps 736 mmHg 99%
    01:00 +23°C° 3.1 mm 0 mps 735 mmHg 99%
    02:00 +23°C° 3.1 mm 0 mps 735 mmHg 99%
    03:00 +23°C° 3.1 mm 0 mps 735 mmHg 99%
    04:00 +23°C° 5.4 mm 0 mps 735 mmHg 99%
    05:00 +25°C° 5.4 mm 1 mps 735 mmHg 99%
    06:00 +25°C° 5.4 mm 1 mps 735 mmHg 99%
    07:00 +25°C° 2.7 mm 1 mps 736 mmHg 99%
    08:00 +25°C° 2.7 mm 1 mps 736 mmHg 99%
    09:00 +25°C° 2.7 mm 1 mps 737 mmHg 99%
    10:00 +25°C° 2.2 mm 1 mps 736 mmHg 99%
    11:00 +26°C° 2.2 mm 1 mps 736 mmHg 99%
    12:00 +26°C° 2.2 mm 1 mps 736 mmHg 99%
    13:00 +25°C° 2.3 mm 1 mps 736 mmHg 99%
    14:00 +25°C° 2.3 mm 1 mps 735 mmHg 99%
    15:00 +25°C° 2.3 mm 1 mps 735 mmHg 99%
    16:00 +25°C° 2 mm 1 mps 735 mmHg 99%
    17:00 +25°C° 2 mm 1 mps 735 mmHg 99%
    18:00 +25°C° 2 mm 1 mps 736 mmHg 99%
    19:00 +25°C° 1.4 mm 1 mps 736 mmHg 99%
    20:00 +25°C° 1.4 mm 1 mps 737 mmHg 99%
    21:00 +25°C° 1.4 mm 1 mps 737 mmHg 99%
    22:00 +25°C° 2.7 mm 1 mps 737 mmHg 99%
    23:00 +24°C° 2.7 mm 1 mps 737 mmHg 99%

    24 July, Wednesday

    Time Temperature Precipitation Wind Pressure Humidity
    00:00 +24°C° 2.7 mm 1 mps 737 mmHg 99%
    01:00 +24°C° 2.4 mm 1 mps 736 mmHg 99%
    02:00 +24°C° 2.4 mm 1 mps 736 mmHg 99%
    03:00 +24°C° 2.4 mm 1 mps 736 mmHg 99%
    04:00 +22°C° 1.7 mm 0 mps 736 mmHg 99%
    05:00 +22°C° 1.7 mm 0 mps 736 mmHg 99%
    06:00 +22°C° 1.7 mm 0 mps 736 mmHg 99%
    07:00 +22°C° 1.6 mm 0 mps 737 mmHg 99%
    08:00 +22°C° 1.6 mm 0 mps 737 mmHg 99%
    09:00 +22°C° 1.6 mm 0 mps 738 mmHg 99%
    10:00 +22°C° 1.2 mm 0 mps 738 mmHg 99%
    11:00 +23°C° 1.2 mm 0 mps 737 mmHg 99%
    12:00 +23°C° 1.2 mm 0 mps 737 mmHg 99%
    13:00 +23°C° 0.7 mm 0 mps 737 mmHg 99%
    14:00 +23°C° 0.7 mm 0 mps 737 mmHg 99%
    15:00 +23°C° 0.7 mm 0 mps 736 mmHg 99%
    16:00 +23°C° 0.3 mm 0 mps 736 mmHg 99%
    17:00 +22°C° 0.3 mm 0 mps 736 mmHg 99%
    18:00 +22°C° 0.3 mm 0 mps 736 mmHg 99%
    19:00 +22°C° 0.3 mm 0 mps 737 mmHg 99%
    20:00 +22°C° 0.3 mm 0 mps 738 mmHg 99%
    21:00 +22°C° 0.3 mm 0 mps 739 mmHg 99%
    22:00 +22°C° 0.4 mm 0 mps 738 mmHg 99%
    23:00 +22°C° 0.4 mm 0 mps 738 mmHg 99%

    25 July, Thursday

    Time Temperature Precipitation Wind Pressure Humidity
    00:00 +22°C° 0.4 mm 0 mps 738 mmHg 99%
    01:00 +22°C° 1.1 mm 0 mps 738 mmHg 99%
    02:00 +22°C° 1.1 mm 0 mps 737 mmHg 99%
    03:00 +22°C° 1.1 mm 0 mps 737 mmHg 99%
    04:00 +22°C° 1.9 mm 0 mps 737 mmHg 99%
    05:00 +22°C° 1.9 mm 0 mps 738 mmHg 99%
    06:00 +22°C° 1.9 mm 0 mps 738 mmHg 99%
    07:00 +22°C° 0.8 mm 0 mps 738 mmHg 99%
    08:00 +23°C° 0.8 mm 0 mps 739 mmHg 99%
    09:00 +23°C° 0.8 mm 0 mps 739 mmHg 99%
    10:00 +23°C° 0.3 mm 0 mps 739 mmHg 99%
    11:00 +23°C° 0.3 mm 0 mps 739 mmHg 98%
    12:00 +23°C° 0.3 mm 0 mps 738 mmHg 98%
    13:00 +24°C° 0.1 mm 0 mps 738 mmHg 96%
    14:00 +24°C° 0.1 mm 0 mps 737 mmHg 95%
    15:00 +25°C° 0.1 mm 0 mps 736 mmHg 94%
    16:00 +24°C° 0.1 mm 0 mps 736 mmHg 94%
    17:00 +24°C° 0.1 mm 0 mps 736 mmHg 95%
    18:00 +24°C° 0.1 mm 0 mps 736 mmHg 96%
    19:00 +24°C° 0 mm 0 mps 737 mmHg 97%
    20:00 +23°C° 0 mm 0 mps 737 mmHg 97%
    21:00 +23°C° 0 mm 0 mps 738 mmHg 98%
    22:00 +23°C° 0.1 mm 0 mps 738 mmHg 98%
    23:00 +23°C° 0.1 mm 0 mps 738 mmHg 98%

    26 July, Friday

    Time Temperature Precipitation Wind Pressure Humidity
    00:00 +23°C° 0.1 mm 0 mps 737 mmHg 98%
    01:00 +23°C° 0.1 mm 0 mps 737 mmHg 98%
    02:00 +23°C° 0.1 mm 0 mps 737 mmHg 98%
    03:00 +22°C° 0.1 mm 0 mps 737 mmHg 98%
    04:00 +23°C° 0.1 mm 0 mps 737 mmHg 98%
    05:00 +23°C° 0.1 mm 0 mps 737 mmHg 98%
    06:00 +23°C° 0.1 mm 0 mps 737 mmHg 98%
    07:00 +23°C° 0 mm 0 mps 737 mmHg 97%
    08:00 +24°C° 0 mm 0 mps 738 mmHg 96%
    09:00 +24°C° 0 mm 0 mps 738 mmHg 95%
    10:00 +25°C° 0.3 mm 0 mps 738 mmHg 93%
    11:00 +25°C° 0.3 mm 0 mps 737 mmHg 90%
    12:00 +26°C° 0.3 mm 0 mps 737 mmHg 88%
    13:00 +27°C° 0.9 mm 0 mps 736 mmHg 87%
    14:00 +27°C° 0.9 mm 0 mps 736 mmHg 86%
    15:00 +27°C° 0.9 mm 0 mps 735 mmHg 85%
    16:00 +27°C° 0.7 mm 0 mps 735 mmHg 88%
    17:00 +26°C° 0.7 mm 0 mps 735 mmHg 91%
    18:00 +25°C° 0.7 mm 0 mps 735 mmHg 94%
    19:00 +25°C° 0.1 mm 0 mps 736 mmHg 95%
    20:00 +24°C° 0.1 mm 0 mps 736 mmHg 96%
    21:00 +24°C° 0.1 mm 0 mps 737 mmHg 97%
    22:00 +23°C° 0.4 mm 0 mps 737 mmHg 97%
    23:00 +23°C° 0.4 mm 0 mps 737 mmHg 97%
    Show more